U of Miami Hecht Athletic Center FL US WEATHERSTEM current weather conditions

sailwx.info

Wind from 010 at 3 knots gusting 4

Air temperature 18.1° C
Dewpoint 14.0° C

Last reported at 2020-Feb-23 04:00 UTC.
Time now 2020-Feb-23 04:40 UTC

Location: N 25°43' W 080°17'.
View on Google Maps.

See reports from other nearby stations

  
Tides and Currents Weather Stations Pressure Air Temp Water Temp Dewpoint Dewpoint Depression Visibility Wind Speed Wind Dir Waves Ship Positions
date/time (UTC)wind fromknots sea level pressurealtimeterstation pressurevisibilityair tempwater tempwave heightnotes
2020-Feb-23 04:00 010 3 gusting 4 18.1
2020-Feb-23 03:50 355 1 gusting 2 18.2
2020-Feb-23 03:40 330 0 gusting 2 18.2
2020-Feb-23 03:30 327 0 gusting 4 18.3
2020-Feb-23 03:20 350 1 gusting 5 18.3
2020-Feb-23 03:00 350 0 gusting 3 18.3
2020-Feb-23 02:50 355 1 gusting 2 18.3
2020-Feb-23 02:40 005 2 gusting 2 18.4
2020-Feb-23 02:30 345 1 gusting 3 18.4
2020-Feb-23 02:20 334 1 gusting 6 18.4
2020-Feb-23 02:00 355 2 gusting 3 18.4
2020-Feb-23 01:50 028 1 gusting 4 18.4
2020-Feb-23 01:40 009 1 gusting 3 18.6
2020-Feb-23 01:30 350 1 gusting 5 18.7
2020-Feb-23 01:20 355 4 gusting 7 18.9
2020-Feb-23 01:00 024 2 gusting 4 19.3
2020-Feb-23 00:50 022 4 gusting 8 19.6
2020-Feb-23 00:40 018 1 gusting 5 19.7
2020-Feb-23 00:30 005 3 gusting 10 19.7
2020-Feb-23 00:20 038 6 gusting 10 19.9
2020-Feb-23 00:00 015 6 gusting 8 20.8
2020-Feb-22 23:50 347 4 gusting 8 21.1
2020-Feb-22 23:40 005 2 gusting 8 21.1
2020-Feb-22 23:30 013 6 gusting 9 21.2
2020-Feb-22 23:20 014 6 gusting 8 21.2
2020-Feb-22 23:00 050 7 gusting 12 21.4
2020-Feb-22 22:50 046 6 gusting 12 21.6
2020-Feb-22 22:40 055 7 gusting 12 21.5
2020-Feb-22 22:30 060 3 gusting 13 21.3
2020-Feb-22 22:20 341 5 gusting 12 20.9
2020-Feb-22 22:00 026 2 gusting 8 20.3
2020-Feb-22 21:50 038 2 gusting 9 19.9
2020-Feb-22 21:30 065 5 gusting 8 19.6
2020-Feb-22 21:20 028 3 gusting 11 19.5
2020-Feb-22 21:00 096 15 gusting 17 22.3
2020-Feb-22 20:50 045 4 gusting 18 22.0
2020-Feb-22 20:40 053 6 gusting 16 22.1
2020-Feb-22 20:30 011 4 gusting 12 22.2
2020-Feb-22 20:20 066 12 gusting 14 22.0
2020-Feb-22 20:00 041 7 gusting 19 22.4
2020-Feb-22 19:50 335 10 gusting 19 22.3
2020-Feb-22 19:40 025 11 gusting 19 22.1
2020-Feb-22 19:30 019 3 gusting 14 21.1
2020-Feb-22 19:20 065 7 gusting 11 20.6
2020-Feb-22 19:00 070 5 gusting 13 22.5
2020-Feb-22 18:50 043 7 gusting 14 22.2
2020-Feb-22 18:40 005 4 gusting 18 21.4
2020-Feb-22 18:30 038 4 gusting 15 21.8
2020-Feb-22 18:20 095 6 gusting 17 22.9
2020-Feb-22 18:00 360 4 gusting 17 22.0
2020-Feb-22 17:50 032 11 gusting 17 22.4
2020-Feb-22 17:40 051 5 gusting 17 23.4
2020-Feb-22 17:30 048 16 gusting 16 23.8
2020-Feb-22 17:20 063 7 gusting 15 23.6
2020-Feb-22 17:00 059 12 gusting 15 22.9
2020-Feb-22 16:50 005 8 gusting 12 22.3
2020-Feb-22 16:40 056 5 gusting 10 21.3
2020-Feb-22 16:30 009 6 gusting 8 20.8
2020-Feb-22 16:20 059 6 gusting 11 20.2
2020-Feb-22 16:00 005 3 gusting 13 20.5
2020-Feb-22 15:40 019 6 gusting 12 20.1
2020-Feb-22 15:30 349 5 gusting 13 19.9
2020-Feb-22 15:10 022 3 gusting 11 18.6
2020-Feb-22 15:00 338 8 gusting 11 18.3
2020-Feb-22 14:40 355 4 gusting 12 18.4
2020-Feb-22 14:30 339 2 gusting 7 17.5
2020-Feb-22 14:10 348 7 gusting 9 16.4
2020-Feb-22 14:00 005 7 gusting 9 16.4
2020-Feb-22 13:50 022 4 gusting 13 16.3
2020-Feb-22 13:40 009 7 gusting 13 16.1
2020-Feb-22 13:30 005 5 gusting 9 15.6
2020-Feb-22 13:20 321 3 gusting 10 15.3
2020-Feb-22 13:10 024 8 gusting 13 14.9
2020-Feb-22 13:00 017 6 gusting 8 14.8
2020-Feb-22 12:50 005 5 gusting 11 14.6
2020-Feb-22 12:40 314 4 gusting 9 14.4
2020-Feb-22 12:30 005 2 gusting 9 14.3
2020-Feb-22 12:20 338 3 gusting 9 14.3
2020-Feb-22 12:10 316 5 gusting 9 14.3
2020-Feb-22 12:00 355 6 gusting 10 14.3
2020-Feb-22 11:50 344 6 gusting 13 14.3
2020-Feb-22 11:40 347 5 gusting 12 14.3
2020-Feb-22 11:30 360 9 gusting 12 14.3
2020-Feb-22 11:20 350 8 gusting 11 14.3
2020-Feb-22 11:10 338 4 gusting 9 14.2
2020-Feb-22 11:00 338 8 gusting 10 14.2
2020-Feb-22 10:40 355 3 gusting 14 14.2
2020-Feb-22 10:30 348 3 gusting 13 14.2
2020-Feb-22 10:10 294 4 gusting 12 14.3
2020-Feb-22 10:00 340 5 gusting 12 14.4
2020-Feb-22 09:50 011 9 gusting 16 14.5
2020-Feb-22 09:40 309 6 gusting 13 14.5
2020-Feb-22 09:30 360 6 gusting 12 14.4
2020-Feb-22 09:20 360 5 gusting 13 14.3
2020-Feb-22 09:10 328 10 gusting 15 14.2
2020-Feb-22 09:00 015 7 gusting 13 14.4
2020-Feb-22 08:50 339 9 gusting 12 14.6
2020-Feb-22 08:40 311 2 gusting 13 14.5
2020-Feb-22 08:30 290 6 gusting 13 14.5
2020-Feb-22 08:20 350 6 gusting 13 14.5
2020-Feb-22 08:10 355 9 gusting 17 14.5
2020-Feb-22 08:00 011 9 gusting 13 14.6
2020-Feb-22 07:50 340 10 gusting 15 14.6
2020-Feb-22 07:40 263 6 gusting 17 14.6
2020-Feb-22 07:30 360 6 gusting 13 14.6
2020-Feb-22 07:20 012 9 gusting 14 14.7
2020-Feb-22 07:10 355 5 gusting 16 14.6
2020-Feb-22 07:00 019 13 gusting 16 14.6
2020-Feb-22 06:50 025 13 gusting 17 14.7
2020-Feb-22 06:40 344 4 gusting 12 14.7
2020-Feb-22 06:20 306 7 gusting 13 14.7
2020-Feb-22 06:10 307 9 gusting 14 14.7
2020-Feb-22 06:00 306 6 gusting 16 14.6
2020-Feb-22 05:50 355 7 gusting 14 14.6
2020-Feb-22 05:40 355 8 gusting 13 14.6
2020-Feb-22 05:30 360 13 gusting 16 14.8
2020-Feb-22 05:20 290 7 gusting 13 14.7
2020-Feb-22 05:10 355 8 gusting 23 14.7
2020-Feb-22 05:00 355 7 gusting 16 14.8
2020-Feb-22 04:40 315 6 gusting 15 15.2
2020-Feb-22 04:30 313 6 gusting 16 15.2
2020-Feb-22 04:20 302 6 gusting 17 15.3
2020-Feb-22 04:10 318 4 gusting 19 15.3
2020-Feb-22 04:00 298 13 gusting 15 15.4
2020-Feb-22 03:40 320 4 gusting 13 15.6
2020-Feb-22 03:30 288 12 gusting 15 15.5
2020-Feb-22 03:20 329 8 gusting 19 15.6
2020-Feb-22 03:10 324 16 gusting 16 15.8
2020-Feb-22 03:00 348 5 gusting 13 15.8
2020-Feb-22 02:30 011 6 gusting 13 16.1
2020-Feb-22 02:20 347 4 gusting 19 16.2
2020-Feb-22 02:10 333 6 gusting 19 16.3
2020-Feb-22 02:00 044 6 gusting 17 16.6
2020-Feb-22 01:50 355 10 gusting 14 16.7
2020-Feb-22 01:40 005 4 gusting 18 16.8
2020-Feb-22 01:30 005 11 gusting 19 16.9
2020-Feb-22 01:20 338 6 gusting 21 17.1
2020-Feb-22 01:10 349 8 gusting 20 17.3
2020-Feb-22 01:00 346 5 gusting 18 17.5
2020-Feb-22 00:50 019 7 gusting 15 17.8
2020-Feb-22 00:40 360 9 gusting 18 18.0
2020-Feb-22 00:30 009 7 gusting 19 18.1
2020-Feb-22 00:20 343 8 gusting 17 18.2
2020-Feb-22 00:10 348 5 gusting 18 18.3
2020-Feb-22 00:00 015 13 gusting 13 18.3
2020-Feb-21 23:50 344 10 gusting 18 18.4
2020-Feb-21 23:40 327 5 gusting 13 18.4
2020-Feb-21 23:30 032 17 gusting 17 18.6
2020-Feb-21 23:20 348 5 gusting 15 18.7
2020-Feb-21 23:00 013 9 gusting 18 18.8
2020-Feb-21 22:50 005 12 gusting 16 18.9
2020-Feb-21 22:40 017 4 gusting 15 19.1
2020-Feb-21 22:30 355 12 gusting 17 19.1
2020-Feb-21 22:20 355 6 gusting 16 19.2
2020-Feb-21 22:10 350 13 gusting 17 19.4
2020-Feb-21 22:00 344 6 gusting 14 19.6
2020-Feb-21 21:50 005 7 gusting 16 19.7
2020-Feb-21 21:40 360 5 gusting 15 19.9
2020-Feb-21 21:30 355 8 gusting 13 20.2
2020-Feb-21 21:20 005 3 gusting 14 20.4
2020-Feb-21 21:00 317 4 gusting 13 20.8
2020-Feb-21 20:50 009 3 gusting 13 20.8
2020-Feb-21 20:40 325 6 gusting 14 20.9
2020-Feb-21 20:30 005 9 gusting 13 21.2
2020-Feb-21 20:20 023 6 gusting 16 21.2
2020-Feb-21 20:10 360 8 gusting 14 21.6
2020-Feb-21 20:00 009 4 gusting 13 21.5
2020-Feb-21 19:40 323 4 gusting 13 21.5
2020-Feb-21 19:30 324 5 gusting 14 21.7
2020-Feb-21 19:20 279 2 gusting 15 22.0
2020-Feb-21 19:00 360 5 gusting 15 22.8
2020-Feb-21 18:50 005 7 gusting 13 23.3
2020-Feb-21 18:40 309 8 gusting 14 23.4
2020-Feb-21 18:30 326 4 gusting 13 23.2
2020-Feb-21 18:20 323 8 gusting 13 23.2
2020-Feb-21 18:10 341 10 gusting 14 23.5
2020-Feb-21 18:00 306 8 gusting 12 24.0
2020-Feb-21 17:50 351 12 gusting 14 23.4
2020-Feb-21 17:40 315 4 gusting 15 23.0
2020-Feb-21 17:30 019 2 gusting 11 22.4
2020-Feb-21 17:20 347 9 gusting 13 22.2
2020-Feb-21 17:10 345 9 gusting 16 22.1
2020-Feb-21 17:00 010 3 gusting 16 22.1
2020-Feb-21 16:50 311 8 gusting 17 23.1
2020-Feb-21 16:40 016 8 gusting 14 24.1
2020-Feb-21 16:30 315 7 gusting 13 24.5
2020-Feb-21 16:20 302 6 gusting 19 24.8
2020-Feb-21 16:10 348 5 gusting 18 26.7
2020-Feb-21 16:00 232 6 gusting 14 27.1
2020-Feb-21 15:50 301 4 gusting 12 26.7
2020-Feb-21 15:40 308 3 gusting 13 26.1
2020-Feb-21 15:30 327 6 gusting 14 25.7
2020-Feb-21 15:20 300 4 gusting 13 25.2
2020-Feb-21 15:10 300 9 gusting 12 24.8
2020-Feb-21 15:00 293 6 gusting 13 24.7
2020-Feb-21 14:50 293 6 gusting 13 24.3
2020-Feb-21 14:40 300 6 gusting 13 23.9
2020-Feb-21 14:30 316 3 gusting 15 23.6
2020-Feb-21 14:20 336 2 gusting 13 23.3
2020-Feb-21 14:10 305 10 gusting 14 23.0
2020-Feb-21 14:00 261 10 gusting 12 22.7
2020-Feb-21 13:50 338 5 gusting 10 22.3
2020-Feb-21 13:40 317 3 gusting 12 21.9
2020-Feb-21 13:30 286 3 gusting 9 21.8
2020-Feb-21 13:20 286 5 gusting 9 21.7
2020-Feb-21 13:10 343 4 gusting 8 21.4
2020-Feb-21 13:00 308 2 gusting 10 21.3
2020-Feb-21 12:50 294 7 gusting 7 21.3
2020-Feb-21 12:40 288 6 gusting 7 21.2
2020-Feb-21 12:30 299 6 gusting 6 21.1
2020-Feb-21 12:20 312 2 gusting 6 21.0
2020-Feb-21 12:10 301 2 gusting 6 21.0
2020-Feb-21 12:00 303 2 gusting 6 21.1
2020-Feb-21 11:40 302 7 gusting 7 21.2
2020-Feb-21 11:30 309 1 gusting 6 21.2
2020-Feb-21 11:20 285 6 gusting 6 21.3
2020-Feb-21 11:10 301 4 gusting 6 21.3
2020-Feb-21 11:00 297 6 gusting 6 21.3
2020-Feb-21 10:40 309 1 gusting 5 21.6
2020-Feb-21 10:30 294 3 gusting 6 21.6
2020-Feb-21 10:20 296 4 gusting 6 21.6
2020-Feb-21 10:10 286 2 gusting 6 21.8
2020-Feb-21 10:00 332 1 gusting 6 21.9
2020-Feb-21 09:50 275 3 gusting 7 22.0
2020-Feb-21 09:30 290 4 gusting 6 22.1
2020-Feb-21 09:20 294 4 gusting 6 22.1
2020-Feb-21 09:10 303 3 gusting 7 22.2
2020-Feb-21 09:00 304 3 gusting 7 22.2
2020-Feb-21 08:50 300 2 gusting 6 22.2
2020-Feb-21 08:40 280 3 gusting 5 22.3
2020-Feb-21 08:30 327 3 gusting 7 22.3
2020-Feb-21 08:20 298 2 gusting 5 22.4
2020-Feb-21 08:10 307 2 gusting 6 22.6
2020-Feb-21 08:00 305 4 gusting 6 22.6
2020-Feb-21 07:50 306 2 gusting 7 22.7
2020-Feb-21 07:40 301 2 gusting 6 22.7
2020-Feb-21 07:30 297 6 gusting 6 22.8
2020-Feb-21 07:20 287 6 gusting 6 22.9
2020-Feb-21 07:10 300 2 gusting 7 23.0
2020-Feb-21 07:00 273 2 gusting 7 23.2
2020-Feb-21 06:50 283 2 gusting 7 23.3
2020-Feb-21 06:40 277 5 gusting 6 23.4
2020-Feb-21 06:30 303 3 gusting 6 23.6
2020-Feb-21 06:20 280 2 gusting 6 23.7
2020-Feb-21 06:10 275 2 gusting 6 23.8
2020-Feb-21 06:00 279 2 gusting 6 23.8
2020-Feb-21 05:50 279 1 gusting 7 24.0
2020-Feb-21 05:40 265 3 gusting 4 24.0
2020-Feb-21 05:30 277 3 gusting 6 24.0
2020-Feb-21 05:20 286 2 gusting 4 24.2
2020-Feb-21 05:10 296 3 gusting 5 24.1
2020-Feb-21 05:00 296 2 gusting 5 24.2
2020-Feb-21 04:50 301 0 gusting 6 24.2
2020-Feb-21 04:40 269 1 gusting 5 24.3
2020-Feb-21 04:30 274 2 gusting 3 24.3
2020-Feb-21 04:20 286 0 gusting 6 24.4
2020-Feb-21 04:10 267 1 gusting 3 24.3
2020-Feb-21 04:00 251 1 gusting 3 24.3